{"data":{"norad_id":62602,"intl_designator":"2025-008R","name":"STARLINK-32769","alt_names":[],"object_type":"PAYLOAD","status":"ACTIVE","operator":null,"country":"US","launch_date":"2025-01-13","launch_site_code":"AFETR","launch_vehicle":null,"mission":null,"orbit_class":"UNKNOWN","rcs_meters":null,"size_class":null,"mass_kg":null,"dimensions":null,"purposes":["comms"],"wikipedia_slug":null,"has_3d_model":false,"image_url":null,"decayed_at":null,"tle_current":{"epoch":"2026-09-21T07:31:44.561280Z","epoch_age_seconds":101037,"freshness":"FRESH","line1":"1 62602U 25008R   26264.31371020  .00008556  00000+0  31999-3 0  9995","line2":"2 62602  43.0000 253.0434 0001438 270.2540  89.8147 15.27587985 95549","mean_motion":15.27587985,"eccentricity":0.0001438,"inclination_deg":43,"raan_deg":253.0434,"arg_perigee_deg":270.254,"mean_anomaly_deg":89.8147,"bstar":0.00031999,"rev_number":9554,"period_min":94.266255962991,"perigee_km":482.03855105884,"apogee_km":484.01182130359,"semimajor_km":6861.1621861812,"source":"CELESTRAK","updated_at":"2026-09-22T09:00:49.633308Z"}}}